KY1LAW Weather Reports


Display with metric or nautical units.
time (UTC)temp
F
wind
direction
speed
MPH
gust
MPH
rain 1hr
in
rain 24hr
in
rain mn
in
humidity
%
barometer
mb
20260906111017 70 18 1.0 3.0 0.00 0.00 0.00 100 1013.2
20260906110517 70 18 0.0 0.0 0.00 0.00 0.00 100 1013.0
20260906110015 70 18 0.0 0.0 0.00 0.00 0.00 100 1013.1
20260906105515 70 18 0.0 0.0 0.00 0.00 0.00 100 1013.0
20260906105015 70 18 0.0 0.0 0.00 0.00 0.00 100 1012.9
20260906104515 70 18 0.0 0.0 0.00 0.00 0.00 100 1012.9
20260906104014 70 18 0.0 0.0 0.00 0.00 0.00 100 1012.8
20260906103517 70 18 0.0 0.0 0.00 0.00 0.00 100 1012.7
20260906103013 70 18 0.0 0.0 0.00 0.00 0.00 100 1012.7
20260906102516 70 18 0.0 0.0 0.00 0.00 0.00 100 1012.8
20260906102018 70 18 0.0 0.0 0.00 0.00 0.00 100 1012.7
20260906101513 70 18 0.0 0.0 0.00 0.00 0.00 100 1012.7
20260906101012 71 18 0.0 2.0 0.00 0.00 0.00 100 1012.5
20260906100515 71 18 0.0 2.0 0.00 0.00 0.00 100 1012.5
20260906100012 71 18 0.0 0.0 0.00 0.00 0.00 100 1012.5
20260906095511 71 18 0.0 0.0 0.00 0.00 0.00 100 1012.5
20260906095012 71 18 0.0 0.0 0.00 0.00 0.00 100 1012.5
20260906094511 71 18 0.0 0.0 0.00 0.00 0.00 100 1012.4
20260906094010 71 18 0.0 0.0 0.00 0.00 0.00 100 1012.4
20260906093510 71 18 0.0 0.0 0.00 0.00 0.00 100 1012.4
20260906093015 71 18 0.0 0.0 0.00 0.00 0.00 100 1012.3
20260906092508 71 18 0.0 0.0 0.00 0.00 0.00 100 1012.3
20260906092012 71 18 0.0 0.0 0.00 0.00 0.00 100 1012.3
20260906091507 72 18 0.0 0.0 0.00 0.00 0.00 100 1012.3
20260906091007 72 18 0.0 0.0 0.00 0.00 0.00 100 1012.3
20260906090507 72 18 0.0 0.0 0.00 0.00 0.00 100 1012.4
20260906090007 72 18 0.0 0.0 0.00 0.00 0.00 100 1012.5
20260906085506 72 18 0.0 0.0 0.00 0.00 0.00 100 1012.4
20260906085005 72 18 0.0 0.0 0.00 0.00 0.00 100 1012.5
20260906084505 72 18 0.0 0.0 0.00 0.00 0.00 100 1012.5
20260906084004 72 18 0.0 0.0 0.00 0.00 0.00 100 1012.5
20260906083504 72 18 0.0 1.0 0.00 0.00 0.00 100 1012.5
20260906083005 72 18 0.0 1.0 0.00 0.00 0.00 100 1012.4
20260906082504 73 18 0.0 1.0 0.00 0.00 0.00 100 1012.4
20260906082003 73 18 0.0 1.0 0.00 0.00 0.00 100 1012.3
20260906081502 73 18 0.0 2.0 0.00 0.00 0.00 100 1012.3
20260906081001 73 18 0.0 0.0 0.00 0.00 0.00 100 1012.2
20260906080502 73 18 0.0 0.0 0.00 0.00 0.00 100 1012.2
20260906080000 73 18 0.0 0.0 0.00 0.00 0.00 100 1012.3
20260906075501 73 18 0.0 0.0 0.00 0.00 0.00 100 1012.4
20260906075102 73 18 0.0 0.0 0.00 0.00 0.00 100 1012.3
20260906074610 73 18 0.0 0.0 0.00 0.00 0.00 100 1012.3
20260906074058 73 18 0.0 1.0 0.00 0.00 0.00 100 1012.4
20260906073600 74 18 0.0 2.0 0.00 0.00 0.00 100 1012.4
20260906073107 74 18 1.0 2.0 0.00 0.00 0.00 100 1012.5
20260906072557 74 18 0.0 1.0 0.00 0.00 0.00 100 1012.4
20260906072059 74 18 0.0 2.0 0.00 0.00 0.00 100 1012.5
20260906071557 74 18 0.0 2.0 0.00 0.00 0.00 100 1012.4
20260906071056 74 18 0.0 2.0 0.00 0.00 0.00 100 1012.5
20260906070556 74 18 0.0 0.0 0.00 0.00 0.00 99 1012.4
20260906070115 74 18 0.0 0.0 0.00 0.00 0.00 99 1012.4
20260906065557 74 18 0.0 1.0 0.00 0.00 0.00 99 1012.4
20260906065155 74 18 0.0 1.0 0.00 0.00 0.00 99 1012.4
20260906064554 74 18 0.0 2.0 0.00 0.00 0.00 98 1012.2
20260906064053 75 18 0.0 2.0 0.00 0.00 0.00 99 1012.3
20260906063551 75 18 0.0 2.0 0.00 0.00 0.00 99 1012.4
20260906063052 75 18 0.0 2.0 0.00 0.00 0.00 98 1012.5
20260906062550 75 18 0.0 2.0 0.00 0.00 0.00 98 1012.4
20260906062051 75 18 1.0 3.0 0.00 0.00 0.00 98 1012.5
20260906061604 75 18 1.0 3.0 0.00 0.00 0.00 98 1012.6
20260906061049 75 18 0.0 0.0 0.00 0.00 0.00 98 1012.5
20260906060553 75 18 0.0 2.0 0.00 0.00 0.00 98 1012.6
20260906060048 75 18 1.0 3.0 0.00 0.00 0.00 98 1012.6
20260906055548 75 18 2.0 3.0 0.00 0.00 0.00 99 1012.5
20260906055048 75 18 0.0 0.0 0.00 0.00 0.00 98 1012.6
20260906054547 75 18 0.0 1.0 0.00 0.00 0.00 98 1012.6
20260906054046 75 18 0.0 3.0 0.00 0.00 0.00 98 1012.7
20260906053545 75 18 1.0 3.0 0.00 0.00 0.00 97 1012.7
20260906053050 76 19 1.0 3.0 0.00 0.00 0.00 97 1012.7
20260906052544 76 19 0.0 1.0 0.00 0.00 0.00 96 1012.7
20260906052043 76 19 0.0 1.0 0.00 0.00 0.00 96 1012.6
20260906051542 77 19 0.0 2.0 0.00 0.00 0.00 96 1012.7
20260906051041 77 19 0.0 2.0 0.00 0.00 0.00 96 1012.8
20260906050540 77 19 0.0 1.0 0.00 0.00 0.00 96 1012.9
20260906050057 77 19 0.0 3.0 0.00 0.00 0.00 96 1012.9
20260906045540 77 19 0.0 3.0 0.00 0.00 0.00 95 1012.8
20260906045039 77 19 1.0 3.0 0.00 0.00 0.00 95 1012.8
20260906044539 77 19 1.0 3.0 0.00 0.00 0.00 95 1012.8
20260906044039 77 19 2.0 3.0 0.00 0.00 0.00 96 1012.9
20260906043539 77 19 0.0 3.0 0.00 0.00 0.00 96 1012.8
20260906043047 77 19 1.0 3.0 0.00 0.00 0.00 96 1012.8
20260906042538 78 19 1.0 3.0 0.00 0.00 0.00 96 1012.8
20260906042038 78 19 1.0 3.0 0.00 0.00 0.00 96 1012.9
20260906041538 78 19 1.0 2.0 0.00 0.00 0.00 96 1012.8
20260906041038 78 19 0.0 4.0 0.00 0.00 0.00 96 1012.9
20260906040537 78 19 1.0 4.0 0.00 0.00 0.00 96 1012.9
20260906040048 78 19 1.0 2.0 0.00 0.00 0.00 96 1012.7
20260906035539 78 19 0.0 1.0 0.00 0.00 0.00 96 1012.7
20260906035038 78 19 0.0 0.0 0.00 0.00 0.00 96 1012.7
20260906034537 78 19 0.0 0.0 0.00 0.00 0.00 95 1012.6
20260906034036 78 19 0.0 0.0 0.00 0.00 0.00 95 1012.6
20260906033537 79 19 0.0 0.0 0.00 0.00 0.00 95 1012.5
20260906033038 79 19 0.0 0.0 0.00 0.00 0.00 95 1012.5
20260906032539 79 19 0.0 0.0 0.00 0.00 0.00 95 1012.4
20260906032036 79 19 0.0 0.0 0.00 0.00 0.00 95 1012.5
20260906031536 79 19 0.0 0.0 0.00 0.00 0.00 94 1012.5
20260906031035 79 19 0.0 0.0 0.00 0.00 0.00 94 1012.4
20260906030536 79 19 0.0 0.0 0.00 0.00 0.00 94 1012.2
20260906030037 80 19 0.0 1.0 0.00 0.00 0.00 94 1012.3
20260906025537 80 19 0.0 3.0 0.00 0.00 0.00 94 1012.2
20260906025036 80 19 0.0 6.0 0.00 0.00 0.00 94 1012.0
20260906024536 80 19 3.0 6.0 0.00 0.00 0.00 94 1012.1
20260906024034 80 290 1.0 2.0 0.00 0.00 0.00 95 1012.0
20260906023536 80 290 1.0 2.0 0.00 0.00 0.00 94 1011.9
20260906023044 80 290 1.0 2.0 0.00 0.00 0.00 94 1011.8
20260906022535 81 290 0.0 2.0 0.00 0.00 0.00 94 1011.5
20260906022035 81 290 0.0 2.0 0.00 0.00 0.00 93 1011.6
20260906021534 81 290 1.0 2.0 0.00 0.00 0.00 93 1011.4
20260906021034 81 290 0.0 0.0 0.00 0.00 0.00 92 1011.3
20260906020533 81 290 0.0 0.0 0.00 0.00 0.00 91 1011.3
20260906020033 82 290 0.0 0.0 0.00 0.00 0.00 91 1011.3
20260906015532 82 290 0.0 0.0 0.00 0.00 0.00 89 1011.3
20260906015033 83 290 0.0 0.0 0.00 0.00 0.00 89 1011.3
20260906014632 83 290 0.0 0.0 0.00 0.00 0.00 89 1011.3
20260906014032 83 290 0.0 0.0 0.00 0.00 0.00 88 1011.3
20260906013532 84 290 0.0 0.0 0.00 0.00 0.00 87 1011.2
20260906013033 84 290 0.0 0.0 0.00 0.00 0.00 86 1011.2
20260906012532 85 290 0.0 0.0 0.00 0.00 0.00 85 1011.2
20260906012032 85 290 0.0 0.0 0.00 0.00 0.00 84 1011.3
20260906011535 86 290 0.0 0.0 0.00 0.00 0.00 83 1011.3
20260906011030 86 290 0.0 0.0 0.00 0.00 0.00 82 1011.4
20260906010532 87 290 0.0 1.0 0.00 0.00 0.00 81 1011.3
20260906010031 87 290 0.0 1.0 0.00 0.00 0.00 80 1011.3
20260906005532 88 290 0.0 0.0 0.00 0.00 0.00 80 1011.3
20260906005030 88 290 0.0 1.0 0.00 0.00 0.00 79 1011.2
20260906004530 88 290 0.0 2.0 0.00 0.00 0.00 79 1011.2
20260906004031 89 290 0.0 3.0 0.00 0.00 0.00 78 1011.3
20260906003532 89 290 1.0 3.0 0.00 0.00 0.00 77 1011.1
20260906003030 90 289 1.0 3.0 0.00 0.00 0.00 76 1011.1
20260906002531 91 289 1.0 2.0 0.00 0.00 0.00 75 1011.2
20260906002031 91 289 0.0 3.0 0.00 0.00 0.00 73 1011.2
20260906001528 92 289 1.0 4.0 0.00 0.00 0.00 73 1011.3
20260906001029 92 289 1.0 4.0 0.00 0.00 0.00 71 1011.3
20260906000529 92 289 2.0 7.0 0.00 0.00 0.00 71 1011.4
20260906000030 92 285 3.0 7.0 0.00 0.00 0.00 70 1011.4
20260905235532 93 257 4.0 8.0 0.00 0.00 0.00 69 1011.4
20260905235029 93 261 3.0 9.0 0.00 0.00 0.00 69 1011.3
20260905234529 94 300 4.0 11.0 0.00 0.00 0.00 68 1011.1
20260905234028 94 271 5.0 11.0 0.00 0.00 0.00 68 1011.2
20260905233528 94 273 5.0 9.0 0.00 0.00 0.00 67 1011.3
20260905233027 95 252 2.0 8.0 0.00 0.00 0.00 67 1011.2
20260905232527 95 249 4.0 8.0 0.00 0.00 0.00 66 1011.2
20260905232026 96 259 3.0 10.0 0.00 0.00 0.00 65 1011.1
20260905231527 96 264 6.0 11.0 0.00 0.00 0.00 64 1011.2
20260905231026 97 251 6.0 11.0 0.00 0.00 0.00 63 1011.3
20260905230526 98 230 5.0 10.0 0.00 0.00 0.00 62 1011.3
20260905230025 98 252 6.0 9.0 0.00 0.00 0.00 62 1011.2
20260905225525 98 273 2.0 4.0 0.00 0.00 0.00 61 1011.1
20260905225023 98 348 0.0 4.0 0.00 0.00 0.00 61 1011.1
20260905224526 98 350 1.0 4.0 0.00 0.00 0.00 61 1011.3
20260905224024 98 274 1.0 8.0 0.00 0.00 0.00 62 1011.3
20260905223526 98 276 5.0 8.0 0.00 0.00 0.00 61 1011.2
20260905223031 97 257 3.0 4.0 0.00 0.00 0.00 60 1011.1
20260905222521 97 257 1.0 7.0 0.00 0.00 0.00 60 1011.2
20260905222020 97 257 3.0 7.0 0.00 0.00 0.00 59 1011.1
20260905221521 98 261 3.0 8.0 0.00 0.00 0.00 58 1011.2
20260905221021 98 271 3.0 8.0 0.00 0.00 0.00 57 1011.0
20260905220523 98 258 3.0 12.0 0.00 0.00 0.00 56 1011.0
20260905220019 99 282 7.0 13.0 0.00 0.00 0.00 55 1011.1
20260905215522 100 263 5.0 11.0 0.00 0.00 0.00 56 1011.1
20260905215020 100 268 6.0 9.0 0.00 0.00 0.00 55 1011.1
20260905214517 100 263 6.0 12.0 0.00 0.00 0.00 56 1011.1
20260905214016 100 288 5.0 11.0 0.00 0.00 0.00 56 1011.1
20260905213515 100 291 4.0 11.0 0.00 0.00 0.00 56 1011.1
20260905213014 100 282 6.0 11.0 0.00 0.00 0.00 56 1011.1
20260905212511 100 319 5.0 10.0 0.00 0.00 0.00 56 1011.1
20260905212010 100 280 4.0 11.0 0.00 0.00 0.00 56 1011.2
20260905211507 100 254 6.0 12.0 0.00 0.00 0.00 57 1011.2
20260905211006 100 269 6.0 12.0 0.00 0.00 0.00 58 1011.2
20260905210505 99 12 1.0 5.0 0.00 0.00 0.00 59 1011.2
20260905210004 98 339 3.0 9.0 0.00 0.00 0.00 57 1011.4
20260905205504 97 288 1.0 8.0 0.00 0.00 0.00 59 1011.4
20260905205003 97 282 2.0 8.0 0.00 0.00 0.00 58 1011.5
20260905204503 97 292 3.0 7.0 0.00 0.00 0.00 59 1011.7
20260905204003 97 293 1.0 3.0 0.00 0.00 0.00 60 1011.6
20260905203502 97 293 1.0 5.0 0.00 0.00 0.00 60 1011.7
20260905203001 98 293 2.0 7.0 0.00 0.00 0.00 60 1011.9
20260905202600 98 289 3.0 7.0 0.00 0.00 0.00 59 1011.9
20260905202100 98 279 2.0 7.0 0.00 0.00 0.00 60 1011.9
20260905201559 98 277 3.0 7.0 0.00 0.00 0.00 59 1012.0
20260905201059 99 275 1.0 9.0 0.00 0.00 0.00 58 1012.0
20260905200557 99 254 4.0 9.0 0.00 0.00 0.00 59 1012.1
20260905200059 99 283 2.0 10.0 0.00 0.00 0.00 58 1012.1
20260905195555 99 292 3.0 14.0 0.00 0.00 0.00 59 1012.2
20260905195058 99 269 8.0 14.0 0.00 0.00 0.00 59 1012.2
20260905194554 98 355 5.0 13.0 0.00 0.00 0.00 59 1012.2
20260905194051 97 319 3.0 8.0 0.00 0.00 0.00 60 1012.2
20260905193553 97 317 3.0 9.0 0.00 0.00 0.00 61 1012.3
20260905193050 97 333 3.0 9.0 0.00 0.00 0.00 60 1012.5
20260905192549 97 279 5.0 9.0 0.00 0.00 0.00 62 1012.6
20260905192047 97 321 0.0 4.0 0.00 0.00 0.00 62 1012.7
20260905191547 97 5 1.0 4.0 0.00 0.00 0.00 63 1012.8
20260905191046 97 5 2.0 4.0 0.00 0.00 0.00 65 1012.8
20260905190545 97 360 0.0 5.0 0.00 0.00 0.00 63 1012.9
20260905190052 97 360 2.0 6.0 0.00 0.00 0.00 63 1013.0
20260905185543 97 326 3.0 6.0 0.00 0.00 0.00 63 1013.0
20260905185041 97 338 2.0 6.0 0.00 0.00 0.00 63 1013.0
20260905184553 97 28 3.0 9.0 0.00 0.00 0.00 64 1013.1
20260905184039 97 317 2.0 8.0 0.00 0.00 0.00 63 1013.2
20260905183539 97 5 2.0 5.0 0.00 0.00 0.00 63 1013.2
20260905183043 97 18 3.0 7.0 0.00 0.00 0.00 63 1013.4
20260905182535 97 297 3.0 7.0 0.00 0.00 0.00 65 1013.5
20260905182034 96 316 1.0 4.0 0.00 0.00 0.00 66 1013.7
20260905181533 95 314 2.0 5.0 0.00 0.00 0.00 67 1013.7
20260905181032 95 313 1.0 11.0 0.00 0.00 0.00 66 1013.6
20260905180532 96 342 4.0 11.0 0.00 0.00 0.00 66 1013.6
20260905180030 97 298 3.0 7.0 0.00 0.00 0.00 63 1013.5
20260905175531 97 59 3.0 8.0 0.00 0.00 0.00 66 1013.7
20260905175030 96 360 1.0 10.0 0.00 0.00 0.00 64 1013.7
20260905174527 96 315 3.0 10.0 0.00 0.00 0.00 64 1014.0
20260905174024 96 311 1.0 5.0 0.00 0.00 0.00 66 1014.0
20260905173524 96 311 2.0 6.0 0.00 0.00 0.00 64 1014.1
20260905173022 96 346 3.0 6.0 0.00 0.00 0.00 65 1014.2
20260905172520 96 360 2.0 8.0 0.00 0.00 0.00 65 1014.3
20260905172018 96 21 3.0 7.0 0.00 0.00 0.00 64 1014.2
20260905171517 96 350 2.0 8.0 0.00 0.00 0.00 64 1014.3
20260905171017 96 313 3.0 8.0 0.00 0.00 0.00 64 1014.3
20260905170513 96 339 3.0 10.0 0.00 0.00 0.00 65 1014.4
20260905170012 96 28 6.0 10.0 0.00 0.00 0.00 65 1014.3
20260905165511 95 309 3.0 9.0 0.00 0.00 0.00 65 1014.4
20260905165009 95 360 5.0 9.0 0.00 0.00 0.00 65 1014.4
20260905164508 95 259 1.0 7.0 0.00 0.00 0.00 68 1014.5
20260905164007 94 254 2.0 8.0 0.00 0.00 0.00 68 1014.5
20260905163507 95 311 3.0 9.0 0.00 0.00 0.00 67 1014.6
20260905163009 96 244 4.0 10.0 0.00 0.00 0.00 67 1014.5
20260905162504 95 269 2.0 10.0 0.00 0.00 0.00 67 1014.5
20260905162001 95 22 2.0 5.0 0.00 0.00 0.00 68 1014.6
20260905161600 95 24 3.0 9.0 0.00 0.00 0.00 67 1014.6
20260905161058 95 348 3.0 9.0 0.00 0.00 0.00 67 1014.7
20260905160557 95 284 3.0 8.0 0.00 0.00 0.00 68 1014.7
20260905160106 95 328 2.0 8.0 0.00 0.00 0.00 70 1014.7
20260905155553 94 289 1.0 10.0 0.00 0.00 0.00 69 1014.7
20260905155052 94 292 7.0 10.0 0.00 0.00 0.00 70 1014.8
20260905154551 94 337 3.0 8.0 0.00 0.00 0.00 71 1014.9
20260905154049 94 242 2.0 8.0 0.00 0.00 0.00 72 1014.9
20260905153547 93 254 3.0 8.0 0.00 0.00 0.00 72 1015.0
20260905153056 93 5 3.0 7.0 0.00 0.00 0.00 72 1015.0
20260905152545 93 360 3.0 7.0 0.00 0.00 0.00 72 1015.0
20260905152043 93 291 2.0 7.0 0.00 0.00 0.00 74 1015.0
20260905151543 92 313 3.0 7.0 0.00 0.00 0.00 75 1015.0
20260905151038 92 288 3.0 7.0 0.00 0.00 0.00 75 1015.1
20260905150538 92 290 3.0 7.0 0.00 0.00 0.00 76 1015.2
20260905150037 92 296 2.0 7.0 0.00 0.00 0.00 77 1015.2
20260905145535 91 259 3.0 8.0 0.00 0.00 0.00 76 1015.2
20260905145033 91 278 3.0 8.0 0.00 0.00 0.00 77 1015.2
20260905144532 91 290 5.0 8.0 0.00 0.00 0.00 77 1015.3
20260905144030 90 263 3.0 9.0 0.00 0.00 0.00 79 1015.2
20260905143529 90 263 5.0 9.0 0.00 0.00 0.00 77 1015.1
20260905143032 90 283 6.0 9.0 0.00 0.00 0.00 78 1015.2
20260905142532 89 277 6.0 9.0 0.00 0.00 0.00 78 1015.2
20260905142027 89 291 5.0 9.0 0.00 0.00 0.00 78 1015.2
20260905141526 89 292 5.0 9.0 0.00 0.00 0.00 80 1015.2
20260905141024 88 327 6.0 9.0 0.00 0.00 0.00 82 1015.2
20260905140522 88 175 1.0 3.0 0.00 0.00 0.00 85 1015.2
20260905140021 87 173 0.0 2.0 0.00 0.00 0.00 87 1015.2
20260905135520 87 173 0.0 2.0 0.00 0.00 0.00 89 1015.1
20260905135019 86 173 0.0 0.0 0.00 0.00 0.00 91 1015.3
20260905134522 85 173 0.0 2.0 0.00 0.00 0.00 92 1015.2
20260905134015 84 173 0.0 2.0 0.00 0.00 0.00 93 1015.2
20260905133513 83 173 0.0 1.0 0.00 0.00 0.00 94 1015.3
20260905133018 82 173 0.0 1.0 0.00 0.00 0.00 95 1015.3
20260905132511 81 173 0.0 2.0 0.00 0.00 0.00 96 1015.2
20260905132009 81 173 0.0 2.0 0.00 0.00 0.00 97 1015.3
20260905131514 80 173 0.0 3.0 0.00 0.00 0.00 99 1015.3
20260905131009 80 173 1.0 3.0 0.00 0.00 0.00 99 1015.2
20260905130504 79 173 1.0 2.0 0.00 0.00 0.00 100 1015.3
20260905130011 78 173 0.0 1.0 0.00 0.00 0.00 100 1015.3
20260905125502 77 173 0.0 0.0 0.00 0.00 0.00 100 1015.3
20260905125001 76 173 0.0 0.0 0.00 0.00 0.00 100 1015.3
20260905124600 76 173 0.0 0.0 0.00 0.00 0.00 100 1015.3
20260905124058 75 173 0.0 1.0 0.00 0.00 0.00 100 1015.4
20260905123558 74 173 0.0 1.0 0.00 0.00 0.00 100 1015.3
20260905123059 73 173 0.0 0.0 0.00 0.00 0.00 100 1015.3
20260905122557 73 173 0.0 0.0 0.00 0.00 0.00 100 1015.2
20260905122057 72 173 0.0 0.0 0.00 0.00 0.00 100 1015.2
20260905121556 72 173 0.0 1.0 0.00 0.00 0.00 100 1015.2
20260905121056 71 173 0.0 1.0 0.00 0.00 0.00 100 1015.2
20260905120600 71 173 0.0 0.0 0.00 0.00 0.00 100 1015.1
20260905120106 71 173 0.0 0.0 0.00 0.00 0.00 100 1015.1
20260905115559 70 173 0.0 0.0 0.00 0.00 0.00 100 1015.1
20260905115056 70 173 0.0 0.0 0.00 0.00 0.00 100 1015.0
20260905114555 70 173 0.0 0.0 0.00 0.00 0.00 100 1015.0
20260905114054 70 173 0.0 0.0 0.00 0.00 0.00 100 1015.0
20260905113554 70 173 0.0 0.0 0.00 0.00 0.00 100 1015.0
20260905113052 70 173 0.0 0.0 0.00 0.00 0.00 100 1014.9
20260905112553 70 173 0.0 0.0 0.00 0.00 0.00 100 1014.9
20260905112052 70 173 0.0 0.0 0.00 0.00 0.00 100 1014.9
20260905111608 70 173 0.0 0.0 0.00 0.00 0.00 100 1014.9